Regional Weather Roundup
Issued by NWS

Home | Current Version | Previous Version | Graphics & Text | Print | Product List | Glossary On
Versions: 1 2 3 4 5 6 7 8 9 10 11 12 13 14 15 16 17 18 19 20 21 22 23 24 25 26 27 28 29 30 31 32 33 34 35 36 37 38 39 40 41 42 43 44 45 46 47 48 49 50
000
ASUS43 KBIS 250801
RWRND

NORTH DAKOTA REGIONAL WEATHER ROUNDUP
NATIONAL WEATHER SERVICE BISMARCK ND
200 AM CST SUN JAN 25 2015

NOTE: "FAIR" INDICATES FEW OR NO CLOUDS BELOW 12,000 FEET WITH NO
SIGNIFICANT WEATHER AND/OR OBSTRUCTIONS TO VISIBILITY.


NDZ001>003-009>011-017-250900-
NORTHWEST NORTH DAKOTA

CITY           SKY/WX    TMP DP  RH WIND       PRES   REMARKS
WILLISTON      CLOUDY    36  31  82 W14       29.97R
MINOT          CLOUDY    27  25  92 CALM      29.87R
MINOT AFB      CLOUDY    26  26 100 N3        29.87R
$$

NDZ018>021-031>035-040>046-250900-
SOUTHWEST NORTH DAKOTA

CITY           SKY/WX    TMP DP  RH WIND       PRES   REMARKS
BISMARCK       CLOUDY    37  32  82 NW13      29.88R
DICKINSON      CLOUDY    35  29  78 NW17      29.91R
GARRISON         N/A     35  33  92 NW16      29.86R
HETTINGER ARPT CLEAR     33  28  81 W17       29.95R
$$

NDZ004>008-012>016-024-026-027-054-250900-
NORTHEAST NORTH DAKOTA

CITY           SKY/WX    TMP DP  RH WIND       PRES   REMARKS
GRAND FORKS    CLOUDY    19  13  77 N7        29.93R WCI  10
GRND FRKS AFB  CLOUDY    16  13  87 N6        29.93R WCI   8
DEVILS LAKE    CLOUDY    18  12  79 NE6       29.89R WCI   9
$$

NDZ022-023-025-028>030-036>039-047>053-250900-
SOUTHEAST NORTH DAKOTA

CITY           SKY/WX    TMP DP  RH WIND       PRES   REMARKS
FARGO          CLOUDY    24  18  77 N14       29.87R WCI  12
JAMESTOWN      LGT SNOW  22  19  89 N8        29.86R FOG     WCI  12
$$



USA.gov is the U.S. government's official web portal to all federal, state and local government web resources and services.